EW3163 Weather Reports


Display with metric or nautical units.
time (UTC)temp
F
wind
direction
speed
MPH
gust
MPH
rain 1hr
in
rain 24hr
in
rain mn
in
humidity
%
barometer
mb
20260507014601 32 63 0.0 0.0 0.00 0.00 0.00 94 1015.6
20260507013058 32 62 0.0 0.0 0.00 0.00 0.00 93 1015.7
20260507011600 32 62 0.0 0.0 0.00 0.00 0.00 93 1015.7
20260507010055 32 62 0.0 0.0 0.00 0.00 0.00 93 1015.8
20260507004555 32 63 0.0 0.0 0.00 0.00 0.00 93 1015.9
20260507003052 32 63 0.0 0.0 0.00 0.00 0.00 92 1015.9
20260507001550 33 62 0.0 0.0 0.00 0.00 0.00 92 1015.9
20260507000051 33 63 0.0 0.0 0.00 0.00 0.00 92 1015.9
20260506234604 33 63 0.0 0.0 0.00 0.00 0.00 92 1015.9
20260506233046 33 62 0.0 0.0 0.00 0.00 0.00 91 1015.9
20260506231544 33 63 0.0 0.0 0.00 0.00 0.00 91 1016.0
20260506230041 34 62 0.0 0.0 0.00 0.00 0.00 91 1016.0
20260506224545 34 62 0.0 0.0 0.00 0.00 0.00 90 1016.0
20260506223045 34 62 0.0 0.0 0.00 0.00 0.00 90 1016.0
20260506221539 34 62 0.0 0.0 0.00 0.00 0.00 89 1016.0
20260506220039 35 63 0.0 0.0 0.00 0.00 0.00 89 1016.1
20260506214542 35 63 0.0 0.0 0.00 0.00 0.00 88 1016.1
20260506213038 36 63 0.0 0.0 0.00 0.00 0.00 88 1016.2
20260506211537 36 63 0.0 0.0 0.00 0.00 0.00 87 1016.1
20260506210040 37 63 0.0 0.0 0.00 0.00 0.00 85 1016.1
20260506204548 38 63 0.0 0.0 0.00 0.00 0.00 84 1016.0
20260506203035 39 62 0.0 0.0 0.00 0.00 0.00 81 1016.1
20260506201536 40 62 0.0 0.0 0.00 0.00 0.00 78 1016.1
20260506200035 41 63 0.0 0.0 0.00 0.00 0.00 77 1016.1
20260506194537 42 63 0.0 0.0 0.00 0.00 0.00 75 1016.0
20260506193033 43 63 0.0 0.0 0.00 0.00 0.00 74 1015.8
20260506191532 44 75 0.0 0.0 0.00 0.00 0.00 72 1015.8
20260506190031 45 81 0.0 0.0 0.00 0.00 0.00 70 1015.6
20260506184531 45 80 0.0 0.0 0.00 0.00 0.00 68 1015.7
20260506183030 46 65 0.0 0.0 0.00 0.00 0.00 68 1015.7
20260506181529 46 46 0.0 0.0 0.00 0.00 0.00 67 1015.6
20260506180028 46 79 0.0 0.0 0.00 0.00 0.00 66 1015.6
20260506174528 47 23 0.0 0.0 0.00 0.00 0.00 66 1015.6
20260506173026 47 74 0.0 0.0 0.00 0.00 0.00 63 1015.5
20260506171537 47 59 0.0 1.0 0.00 0.00 0.00 64 1015.4
20260506170025 47 82 0.0 1.0 0.00 0.00 0.00 62 1015.5
20260506164524 48 24 0.0 1.0 0.00 0.00 0.00 63 1015.5
20260506163022 48 77 0.0 1.0 0.00 0.00 0.00 63 1015.6
20260506161523 48 83 0.0 0.0 0.00 0.00 0.00 64 1015.7
20260506160032 49 106 0.0 0.0 0.00 0.00 0.00 64 1015.8
20260506154519 49 26 0.0 0.0 0.00 0.00 0.00 64 1015.9
20260506153018 48 33 0.0 4.0 0.00 0.00 0.00 65 1015.9
20260506151530 48 92 0.0 0.0 0.00 0.00 0.00 63 1015.9
20260506150027 48 25 0.0 0.0 0.00 0.00 0.00 65 1016.0
20260506144515 47 49 0.0 0.0 0.00 0.00 0.00 65 1016.0
20260506143034 47 21 0.0 5.0 0.00 0.00 0.00 65 1016.1
20260506141513 48 88 0.0 0.0 0.00 0.00 0.00 65 1016.1
20260506140015 49 339 0.0 0.0 0.00 0.00 0.00 63 1016.0
20260506134514 49 52 0.0 0.0 0.00 0.00 0.00 65 1016.1
20260506133012 48 75 0.0 0.0 0.00 0.00 0.00 63 1016.2
20260506131515 48 30 0.0 2.0 0.00 0.00 0.00 63 1016.1
20260506130010 49 89 0.0 0.0 0.00 0.00 0.00 64 1016.0
20260506124508 49 86 0.0 0.0 0.00 0.00 0.00 62 1016.0
20260506123006 49 25 0.0 0.0 0.00 0.00 0.00 64 1016.1
20260506121506 49 83 0.0 4.0 0.00 0.00 0.00 60 1016.2
20260506120005 49 20 0.0 5.0 0.00 0.00 0.00 62 1016.3
20260506114505 49 33 0.0 1.0 0.00 0.00 0.00 64 1016.3
20260506113003 49 23 0.0 0.0 0.00 0.00 0.00 63 1016.4
20260506111501 49 26 0.0 1.0 0.00 0.00 0.00 64 1016.4
20260506110103 48 30 0.0 1.0 0.00 0.00 0.00 67 1016.4
20260506104614 46 27 0.0 13.0 0.00 0.00 0.00 68 1016.5
20260506103054 45 23 0.0 4.0 0.00 0.00 0.00 71 1016.5
20260506101559 45 25 0.0 3.0 0.00 0.00 0.00 70 1016.5
20260506100051 46 11 0.0 5.0 0.00 0.00 0.00 69 1016.4
20260506094557 45 31 0.0 10.0 0.00 0.00 0.00 70 1016.5
20260506093054 45 20 0.0 8.0 0.00 0.00 0.00 72 1016.5
20260506091550 45 25 0.0 5.0 0.00 0.00 0.00 73 1016.6
20260506090046 46 25 0.0 3.0 0.00 0.00 0.00 72 1016.6
20260506084550 45 19 0.0 4.0 0.00 0.00 0.00 73 1016.5
20260506083043 45 356 0.0 6.0 0.00 0.00 0.00 75 1016.5
20260506081541 44 331 0.0 6.0 0.00 0.00 0.00 77 1016.6
20260506073040 43 318 0.0 4.0 0.00 0.00 0.00 83 1016.4
20260506071530 42 12 0.0 1.0 0.00 0.00 0.00 87 1016.4
20260506061521 36 356 0.0 0.0 0.00 0.00 0.00 95 1016.3
20260506044523 32 334 0.0 0.0 0.00 0.00 0.00 95 1016.3
20260506043017 32 335 0.0 0.0 0.00 0.00 0.00 95 1016.3
20260506041525 32 335 0.0 0.0 0.00 0.00 0.00 94 1016.3
20260506040013 32 335 0.0 0.0 0.00 0.00 0.00 94 1016.3
20260506034512 33 335 0.0 0.0 0.00 0.00 0.00 94 1016.4
20260506033010 33 335 0.0 0.0 0.00 0.00 0.00 94 1016.3
20260506031514 33 334 0.0 0.0 0.00 0.00 0.00 94 1016.4
20260506030010 33 335 0.0 0.0 0.00 0.00 0.00 94 1016.3
20260506024507 33 335 0.0 0.0 0.00 0.00 0.00 94 1016.3
20260506023004 33 335 0.0 0.0 0.00 0.00 0.00 94 1016.4
20260506021506 33 334 0.0 0.0 0.00 0.00 0.00 94 1016.4
20260506020002 33 335 0.0 0.0 0.00 0.00 0.00 93 1016.4